Location: Casilda
(33.0440°S, 61.1680°W)
Time: 21:11:40
(UTC-03:00)

ISS - Pass Details

Date: 27 November 2022
Orbit: 414 x 420 km, 51.6° (Epoch: 02 December)

Event Time Altitude Azimuth Distance (km) Brightness Sun altitude
Exits shadow 03:39:52 44° 186° (S) 600 -2.8 -22.7°
Drops below altitude 10° 03:42:39 10° 144° (SE) 1,528 0.2 -22.3°
Sets 03:44:49 0° 138° (SE) 2,400 1.6 -22.0°
